Starlink 11409

operational
NORAD ID: 63061 Int'l Des: 2025-035 Owner: SPXS Country: US Constellation: starlink
LEOCIRCULAR

Starlink 11409について

説明を読み込み中...

リアルタイム位置

3D地球を読み込み中...

次回通過

高度履歴

Altitude vs Time

uPlot chart will show altitude changes over time

軌道要素

1 63061U 25035K 25304.70936808 .00250814 00000-0 18997-2 0 9992
2 63061 42.9996 72.9664 0001658 279.6108 80.4572 15.70840045 40930
Epoch: Oct 31, 2025 • Age: 20 hours

現在のステータス

高度 357.6 km
速度 7.70 km/s
衛星直下点 34.18°N, 40.47°W
打ち上げ日 Feb 21, 2025
運用期間 0.6 years
タイプ internet

技術仕様

分類 Payload
質量 960.00 kg
乾燥質量 910.00 kg
総質量 960.00 kg
長さ 0.30 m
直径 4.10 m
スパン 29.00 m
形状 Box + pan
製造者 SPXS
バスタイプ Starlink V2MD
フェーズステータス In Orbit
所有者/国 SPXS/US

大規模コンステレーション

Loading constellations...